User: anonymous   Login
Location: Stoke Bliss
(52.2667°N, 2.5167°W)
Time: 02:40:32
(UTC+00:00)
Language:

Cosmos 1933 Rocket - Orbit

View from above orbital plane
View from above orbital plane
View from above satellite
View from above satellite

Ground track
Ground track

The orbit data is extracted from the following two-line orbital elements,

1 18959U 88020B   21127.80752129  .00000060  00000-0  43752-5 0  9999
2 18959  82.5409  23.2471 0018036 128.2781 232.0060 14.83477016791188
Epoch (UTC): 07 May 2021 19:22:49
Eccentricity: 0.0018036
inclination: 82.5409°
perigee height: 606 km
apogee height: 631 km
right ascension of ascending node: 23.2471°
argument of perigee: 128.2781°
revolutions per day: 14.83477016
mean anomaly at epoch: 232.0060°
orbit number at epoch: 79118

The dashed part of the orbit path shows where the satellite is in the earth's shadow,  

DLR